[[{"header":{"parameterUnit":"m.s-1","parameterCategory":1,"la1":30.2991,"la2":30.254,"lo1":-89.0895,"lo2":-89.0444,"dy":0.0017,"dx":0.0017,"nx":28,"ny":28,"refTime":"2025-11-09T03:00:00:Z","depth":0,"parameterNumber":2,"parameterNumberName":"U-component_of_WINDS"},"data":[0,0,0,0,0,0,0,0,0,0,0,0,0,0,0,0,0,0,0,0,0,0,0,0,0,0,0,0,0,0,0,0,0,0,0,0,0,0,0,0,0,0,0,0,0,0,0,0,0,0,0,0,0,0,0,0,0,0,2.037,2.0371,0,2.0424,2.0425,2.0426,2.0385,2.0383,2.0381,2.038,2.0435,2.0438,2.0441,0,0,0,0,0,0,0,0,0,0,0,0,0,2.023,2.0233,2.037,2.0371,2.0371,2.0424,2.0425,2.0426,2.0385,2.0383,2.0381,2.0379,2.0433,2.0437,2.0441,0,0,0,0,0,0,0,0,0,0,0,0,0,2.0288,2.0234,2.037,2.0358,2.0357,2.0424,2.0425,2.0426,2.0386,2.0383,2.038,2.0378,2.0432,2.0437,2.0441,2.0523,0,0,2.0456,2.0458,0,0,0,0,0,0,0,0,2.0285,2.0293,2.0359,2.0359,2.0358,2.0395,2.0396,2.0458,2.0386,2.0375,2.038,2.0377,2.0424,2.0429,2.0445,2.0526,2.0528,2.0456,2.0459,2.0461,2.0462,0,0,0,0,0,0,0,2.0281,2.0291,2.0391,2.036,2.0359,2.0349,2.0354,2.0407,2.0413,2.0376,2.0373,2.038,2.0423,2.044,2.0446,2.0529,2.0456,2.046,2.0463,2.0465,2.0679,2.0682,0,0,0,0,0,0,2.0278,2.0288,2.039,2.0393,2.0314,2.0354,2.036,2.0386,2.0413,2.0414,2.0382,2.0378,2.0434,2.044,2.0447,2.0545,2.0461,2.0465,2.0468,2.0676,2.068,2.0683,0,0,0,0,0,0,2.0275,2.0288,2.0388,2.034,2.0352,2.0359,2.0389,2.0388,2.0406,2.0418,2.0418,2.0399,2.0432,2.0441,2.0505,2.0546,2.0467,2.0472,2.0673,2.0677,2.0681,2.074,0,0,0,0,0,0,2.0272,2.0287,2.0318,2.0341,2.0354,2.0444,2.0391,2.0391,2.0414,2.0409,2.0434,2.0435,2.043,2.0498,2.0509,2.0551,2.0475,2.0669,2.0675,2.068,2.0735,2.0746,2.0756,0,0,0,0,0,2.0267,2.0333,2.032,2.0333,2.0394,2.0447,2.0455,2.0448,2.0418,2.0449,2.0456,2.0434,2.054,2.0505,2.0517,2.0561,2.0666,2.0673,2.0679,2.073,2.0744,2.0756,0,0,0,0,0,0,2.0315,2.0335,2.0322,2.0397,2.0421,2.044,2.048,2.0463,2.0496,2.0489,2.048,2.0486,2.0552,2.0563,2.0524,2.0641,2.0598,2.0607,2.0632,2.0646,2.0656,2.0652,2.0479,0,0,0,0,0,2.0334,2.0376,2.0392,2.0457,2.0469,2.0472,2.0495,2.0488,2.0512,2.0522,2.0534,2.0557,2.0595,2.0621,2.0657,2.0736,2.074,2.0772,2.0783,2.0791,2.08,2.0842,2.0856,2.0704,2.0704,2.0704,0,0,2.0375,2.0391,2.0418,2.0467,2.0484,2.0527,2.0481,2.0529,2.056,2.0529,2.059,2.0599,2.0625,2.0696,2.0729,2.0707,2.0842,2.08,2.0806,2.081,2.085,2.0864,2.0877,2.0709,2.0708,2.0707,0,0,2.0471,2.0488,2.0544,2.0562,2.0589,2.0591,2.0604,2.0626,2.0631,2.0692,2.0669,2.0706,2.0773,2.0792,2.081,2.0913,2.0894,2.0925,2.0981,2.1022,2.1034,2.1044,2.1081,2.1094,2.0933,2.0933,2.0933,0,2.0518,2.0582,2.0574,2.0624,2.0646,2.0619,2.0675,2.0693,2.073,2.0746,2.0721,2.0804,2.0819,2.0895,2.092,2.0936,2.095,2.0922,2.1033,2.1043,2.1053,2.1088,2.1101,2.0937,2.0936,2.0936,2.0936,0,2.0639,2.0684,2.0726,2.0763,2.0789,2.0842,2.0841,2.0869,2.0859,2.0863,2.0925,2.0943,2.0982,2.0999,2.099,2.1073,2.1059,2.1034,2.099,2.1071,2.1104,2.1117,2.0942,2.0941,2.094,2.0939,0,0,2.0767,2.0799,2.0815,2.0831,2.0858,2.0893,2.0944,2.0982,2.1006,2.1032,2.1074,2.1131,2.1108,2.1128,2.1121,2.1158,2.1238,2.1128,2.1128,2.1148,2.133,2.1349,2.1365,2.1225,2.1227,2.1229,2.1328,0,2.0865,2.0954,2.0948,2.1033,2.1074,2.1049,2.1093,2.1115,2.112,2.1155,2.116,2.12,2.1167,2.1179,2.1214,2.1221,2.1274,2.1213,2.1264,2.1266,2.1259,2.1382,2.1402,2.1494,2.134,2.1343,2.1344,0,2.0991,2.1022,2.111,2.1131,2.1148,2.1189,2.1223,2.1257,2.128,2.1281,2.1305,2.1291,2.1342,2.1297,2.1367,2.1326,2.1346,2.1352,2.1356,2.136,2.131,2.139,2.1524,2.1538,2.1364,2.1362,2.1361,0,2.1076,2.1139,2.1201,2.1215,2.1242,2.127,2.1282,2.1303,2.1327,2.1356,2.1371,2.1406,2.1426,2.1453,2.1449,2.1417,2.152,2.1475,2.1522,2.1522,2.1545,2.1544,2.1685,2.1558,2.1558,2.1558,2.1557,0,2.1185,2.124,2.1239,2.1277,2.1338,2.133,2.139,2.1399,2.1417,2.1456,2.1436,2.1472,2.1465,2.1501,2.1499,2.1557,2.1565,2.1567,2.1566,2.1569,2.1569,2.1583,2.1576,2.1561,2.156,2.156,2.1559,0,2.1291,2.1292,2.1357,2.1377,2.1383,2.1427,2.1443,2.1478,2.1481,2.153,2.1541,2.1546,2.1588,2.1586,2.1633,2.1631,2.1703,2.1694,2.1695,2.1693,2.1741,2.1736,2.1895,2.1915,2.1776,2.1777,2.1778,0,2.1361,2.1403,2.1427,2.1451,2.1466,2.1505,2.1529,2.1523,2.1548,2.1578,2.1609,2.1649,2.168,2.1747,2.1755,2.179,2.1782,2.1835,2.1787,2.1789,2.1783,2.1781,2.1785,2.1845,2.1846,2.1848,2.1849,0,2.1485,2.1484,2.1519,2.1555,2.1584,2.1611,2.1637,2.1658,2.1654,2.1683,2.1726,2.175,2.1798,2.1837,2.1871,2.1883,2.1865,2.1864,2.1877,2.1881,2.188,2.1881,2.1721,2.186,2.1859,2.1858,2.1858,2.1857,2.1575,2.1611,2.1634,2.1674,2.1692,2.1716,2.175,2.1758,2.1793,2.1832,2.1826,2.1873,2.1894,2.1939,2.1953,2.199,2.1971,2.1989,2.1994,2.1999,2.2004,2.1874,2.1996,2.1995,2.1995,2.1995,2.1995,0,2.1698,2.1712,2.1749,2.1785,2.1816,2.1797,2.1824,2.1851,2.1893,2.1915,2.1946,2.1995,2.2033,2.2043,2.2079,2.2106,2.2099,2.2116,2.2114,2.2117,2.2019,2.2004,2.2121,2.2121,2.2121,2.2121,2.2121,2.2121,2.1766,2.1826,2.1828,2.1896,2.1909,2.1955,2.1972,2.1994,2.2012,2.2067,2.2098,2.2105,2.2122,2.2159,2.2193,2.2195,2.2209,2.223,2.2228,2.2137,2.2124,2.2112,2.2098,2.2233,2.2233,2.2323,2.2324,2.2325]},{"header":{"parameterUnit":"m.s-1","parameterCategory":1,"la1":30.2991,"la2":30.254,"lo1":-89.0895,"lo2":-89.0444,"dy":0.0017,"dx":0.0017,"nx":28,"ny":28,"refTime":"2025-11-09T03:00:00:Z","depth":0,"parameterNumber":3,"parameterNumberName":"V-component_of_WINDS"},"data":[0,0,0,0,0,0,0,0,0,0,0,0,0,0,0,0,0,0,0,0,0,0,0,0,0,0,0,0,0,0,0,0,0,0,0,0,0,0,0,0,0,0,0,0,0,0,0,0,0,0,0,0,0,0,0,0,0,0,2.2115,2.2115,0,2.21,2.21,2.21,2.2055,2.2054,2.2053,2.2052,2.2036,2.2037,2.2037,0,0,0,0,0,0,0,0,0,0,0,0,0,2.2105,2.2106,2.2115,2.2115,2.2115,2.21,2.21,2.21,2.2055,2.2054,2.2053,2.2052,2.2036,2.2037,2.2037,0,0,0,0,0,0,0,0,0,0,0,0,0,2.2102,2.2106,2.2116,2.2091,2.2089,2.21,2.21,2.21,2.2056,2.2054,2.2053,2.2051,2.2036,2.2037,2.2037,2.2071,0,0,2.204,2.204,0,0,0,0,0,0,0,0,2.2102,2.2102,2.2095,2.2093,2.209,2.2078,2.209,2.209,2.2056,2.2068,2.2052,2.2051,2.2051,2.2051,2.2051,2.207,2.207,2.204,2.204,2.204,2.2041,0,0,0,0,0,0,0,2.2102,2.2103,2.2109,2.2095,2.2092,2.2081,2.2078,2.209,2.2068,2.2067,2.2064,2.2063,2.205,2.205,2.205,2.2069,2.204,2.204,2.2041,2.2041,2.2114,2.2115,0,0,0,0,0,0,2.2106,2.2103,2.211,2.2109,2.2093,2.2082,2.208,2.2083,2.2068,2.2064,2.2064,2.2061,2.205,2.205,2.205,2.2087,2.204,2.2041,2.2041,2.2112,2.2114,2.2116,0,0,0,0,0,0,2.2106,2.2107,2.211,2.2105,2.2105,2.2084,2.2088,2.2084,2.2084,2.2065,2.2061,2.2069,2.2049,2.2049,2.2066,2.2086,2.2041,2.2042,2.211,2.2113,2.2115,2.2163,0,0,0,0,0,0,2.2106,2.2107,2.212,2.2106,2.2105,2.2127,2.209,2.2085,2.2086,2.2081,2.2069,2.2065,2.2048,2.2065,2.2066,2.2086,2.2043,2.2108,2.2111,2.2114,2.216,2.2167,2.2173,0,0,0,0,0,2.2106,2.2135,2.2121,2.2122,2.2121,2.2129,2.2128,2.2107,2.2088,2.21,2.2088,2.2066,2.2083,2.2067,2.2068,2.2089,2.2107,2.2111,2.2114,2.2157,2.2165,2.2173,0,0,0,0,0,0,2.2153,2.2133,2.2117,2.2143,2.2138,2.2121,2.2137,2.2117,2.2118,2.2114,2.2088,2.2085,2.2106,2.2099,2.2081,2.2119,2.2091,2.2095,2.2124,2.2132,2.2138,2.2139,2.2043,0,0,0,0,0,2.2166,2.2175,2.2156,2.218,2.2178,2.2158,2.2161,2.2145,2.2139,2.2136,2.2125,2.212,2.2124,2.2127,2.213,2.2158,2.2154,2.2172,2.2179,2.2185,2.2188,2.2201,2.2209,2.2127,2.2127,2.2127,0,0,2.2194,2.2184,2.2191,2.2189,2.2184,2.2192,2.2157,2.2168,2.2173,2.2138,2.2153,2.2145,2.2137,2.2159,2.2169,2.2154,2.221,2.2189,2.2193,2.2194,2.2206,2.2214,2.222,2.2129,2.2128,2.2128,0,0,2.2249,2.2242,2.2261,2.2256,2.2247,2.2233,2.2238,2.2224,2.2217,2.2232,2.2205,2.2211,2.2219,2.2214,2.2213,2.2264,2.2244,2.2266,2.23,2.2314,2.232,2.2326,2.2344,2.235,2.2269,2.227,2.227,0,2.2285,2.2297,2.2273,2.2286,2.2285,2.2253,2.2271,2.2267,2.226,2.2261,2.2244,2.2253,2.2245,2.2266,2.2278,2.2278,2.2282,2.2267,2.2321,2.2326,2.2331,2.2348,2.2355,2.2272,2.2272,2.2272,2.2271,0,2.234,2.2349,2.2365,2.2359,2.236,2.2376,2.2354,2.2358,2.2342,2.2329,2.2344,2.2334,2.2333,2.2337,2.2321,2.2355,2.2346,2.2326,2.2297,2.2342,2.2358,2.2364,2.2276,2.2275,2.2274,2.2274,0,0,2.2426,2.2405,2.2412,2.2408,2.2395,2.2402,2.2415,2.2414,2.2418,2.2414,2.2424,2.2431,2.2412,2.241,2.2393,2.2405,2.2445,2.2383,2.2382,2.2395,2.248,2.2496,2.2504,2.2431,2.2432,2.2433,2.2481,0,2.2478,2.25,2.2478,2.2504,2.2511,2.248,2.2491,2.2484,2.2473,2.2477,2.2463,2.2468,2.2443,2.2442,2.2452,2.2438,2.2462,2.2434,2.244,2.244,2.2443,2.2512,2.2528,2.2574,2.2487,2.2488,2.2489,0,2.2541,2.254,2.2566,2.2551,2.2553,2.2564,2.2561,2.2565,2.2556,2.2547,2.2545,2.2524,2.2535,2.2507,2.2521,2.2503,2.2504,2.2497,2.2498,2.2498,2.2468,2.2513,2.2588,2.2595,2.2498,2.2497,2.2496,0,2.2601,2.2605,2.2621,2.2619,2.2601,2.261,2.2603,2.2592,2.2593,2.259,2.259,2.2589,2.2588,2.2587,2.2566,2.2548,2.2583,2.2553,2.2575,2.2576,2.2585,2.2584,2.2661,2.2585,2.2585,2.2585,2.2585,0,2.2661,2.2678,2.2647,2.2658,2.2676,2.265,2.2669,2.2659,2.2649,2.2656,2.2629,2.2636,2.2608,2.2612,2.2595,2.2609,2.2609,2.2602,2.2597,2.2604,2.2605,2.2605,2.2601,2.2587,2.2586,2.2586,2.2586,0,2.2731,2.2711,2.2726,2.2708,2.2704,2.2718,2.2702,2.271,2.2696,2.2705,2.2705,2.2683,2.2686,2.2665,2.2664,2.2653,2.2675,2.2665,2.2678,2.2675,2.2698,2.2696,2.2777,2.2786,2.2705,2.2705,2.2706,0,2.2771,2.2783,2.2766,2.2768,2.2763,2.2767,2.2768,2.2742,2.2744,2.2734,2.2743,2.2743,2.2743,2.2749,2.2732,2.2731,2.2721,2.2749,2.272,2.2727,2.2721,2.272,2.2721,2.2755,2.2756,2.2757,2.2758,0,2.2843,2.2832,2.2834,2.2831,2.2832,2.2829,2.2824,2.2828,2.28,2.2803,2.2805,2.2805,2.2803,2.2804,2.2799,2.2791,2.277,2.2766,2.2771,2.2779,2.2786,2.2782,2.2694,2.2765,2.2764,2.2764,2.2763,2.2763,2.2899,2.2908,2.2897,2.2899,2.2893,2.2889,2.2895,2.2881,2.2883,2.288,2.2864,2.2869,2.2859,2.285,2.2844,2.2847,2.2834,2.2841,2.2843,2.2845,2.2849,2.2785,2.2846,2.2846,2.2846,2.2846,2.2845,0,2.297,2.2961,2.2963,2.2957,2.2958,2.2937,2.293,2.2933,2.2937,2.2929,2.2929,2.2931,2.2931,2.2914,2.2912,2.2918,2.2908,2.2918,2.2917,2.2916,2.2862,2.2857,2.2926,2.2926,2.2926,2.2926,2.2926,2.2926,2.3008,2.3022,2.3009,2.302,2.301,2.3015,2.3013,2.3008,2.3001,2.3005,2.3005,2.2994,2.2982,2.2978,2.2977,2.2972,2.2972,2.2986,2.2978,2.2927,2.292,2.2912,2.2908,2.2986,2.2986,2.3031,2.3032,2.3032]}]]